Location: Riverside Cemetery
(38.3047°N, 99.7773°W)
Time: 19:19:20
(UTC+00:00)

Cosmos 858 Rocket - Pass Details

Date: 19 September 2020
Orbit: 756 x 774 km, 74.1° (Epoch: 22 October)

Event Time Altitude Azimuth Distance (km) Brightness Sun altitude
Rises 01:15:00 0° 193° (SSW) 3,219 7.8 -7.4°
Reaches altitude 10° 01:17:22 10° 191° (SSW) 2,294 7.0 -7.9°
Maximum altitude 01:22:34 77° 106° (ESE) 785 4.4 -8.9°
Drops below altitude 10° 01:27:46 10° 21° (NNE) 2,298 6.9 -9.9°
Sets 01:30:09 0° 20° (NNE) 3,225 7.6 -10.3°
